Regional Weather Roundup
Issued by NWS

Home | Current Version | Previous Version | Graphics & Text | Print | Product List | Glossary Off
Versions: 1 2 3 4 5 6 7 8 9 10 11 12 13 14 15 16 17 18 19 20 21 22 23 24 25 26 27 28 29 30 31 32 33 34 35 36 37 38 39 40 41 42 43 44 45 46 47 48 49 50

000
ASUS43 KDMX 020707
RWRIA

WEATHER ROUNDUP FOR IOWA
NATIONAL WEATHER SERVICE DES MOINES IA
200 AM CDT TUE JUN 02 2015

NOTE: "FAIR" INDICATES FEW OR NO CLOUDS BELOW 12,000 FEET WITH NO
SIGNIFICANT WEATHER AND/OR OBSTRUCTIONS TO VISIBILITY.

* - THESE STATIONS ARE NOT NWS STATIONS...THUS NOT UNDER NWS
QUALITY CONTROL.  THEY ALSO DO NOT REPORT WEATHER SUCH
AS PRECIPITATION OR FOG.

IAZ001>003-012>014-020>022-031>034-043>046-020800-
   NORTHWEST IOWA

CITY           SKY/WX    TMP DP  RH WIND       PRES   REMARKS
CARROLL *      CLEAR     57  54  88 S9        30.09S
CHEROKEE *     MOCLDY    59  50  72 S10       30.05F
DENISON *      CLEAR     57  57 100 SE13G18   30.05F
LE MARS *      CLEAR     61  52  72 S10       30.04F
ORANGE CITY *  CLEAR     59  50  72 S7        30.04F
SHELDON *      CLEAR     59  48  67 S13       30.03F
SIOUX CITY     MOCLDY    62  50  64 SE10      30.03F
SPENCER        PTCLDY    59  48  67 S10       30.07S
$$

IAZ055>058-069>071-079>083-090>094-020800-
   SOUTHWEST IOWA

CITY           SKY/WX    TMP DP  RH WIND       PRES   REMARKS
ATLANTIC *     PTCLDY    57  55  94 SE9G15    30.10S
AUDUBON *      CLEAR     55  52  88 S6        30.11S
CLARINDA *     CLEAR     57  55  94 S6        30.12F
COUNCIL BLFS * CLEAR     57  57 100 S8        30.08F
CRESTON *      CLEAR     54  54 100 S6        30.13S
HARLAN  *      CLEAR     57  57 100 S10       30.12S
LAMONI         CLOUDY    60  54  80 S8        30.13S
RED OAK *      CLEAR     57  55  94 SE8       30.10S
SHENANDOAH *   CLEAR     55  55 100 SE5       30.11S
$$

IAZ047>049-059>061-072>074-084-020800-
   CENTRAL IOWA

CITY           SKY/WX    TMP DP  RH WIND       PRES   REMARKS
AMES           CLEAR     55  52  89 S7        30.12S
ANKENY *       CLEAR     55  54  94 S5        30.13R
CHARITON *     CLEAR     57  54  88 SW6       30.13S
DES MOINES     PTCLDY    57  52  83 S5        30.13S
GRINNELL*      CLEAR     55  52  88 SW6       30.14S
KNOXVILLE *    CLEAR     55  52  88 S5        30.12S
MARSHALLTOWN   CLEAR     55  51  86 S5        30.12S
PELLA *        CLEAR     54  54 100 CALM      30.14F
PERRY *          N/A     55  54  94 S8        30.11S
$$

IAZ004>006-015-016-023>025-035-036-020800-
   NORTH CENTRAL IOWA

CITY           SKY/WX    TMP DP  RH WIND       PRES   REMARKS
ALGONA *       CLEAR     57  52  82 S13       30.09F
CLARION *      CLEAR     57  50  77 S9        30.11S
ESTHERVILLE    CLEAR     56  44  64 S12       30.08R
FORT DODGE *   CLEAR     57  50  77 S8        30.11S
MASON CITY     CLEAR     52  43  71 SE5       30.14S
FOREST CITY *  CLEAR     52  46  82 SE7       30.11F
IOWA FALLS *     N/A     54  50  87 SE5       30.14S
$$

IAZ007>011-017>019-026>030-037>042-050>054-066-020800-
   NORTHEAST IOWA

CITY           SKY/WX    TMP DP  RH WIND       PRES   REMARKS
CEDAR RAPIDS   PTCLDY    53  47  79 E8        30.14R
CHARLES CITY * CLEAR     54  41  62 SE8       30.14S
CLINTON *      CLEAR     50  43  76 E8        30.19S
DECORAH *      CLEAR     52  39  62 SE9       30.15S
DUBUQUE        CLEAR     49  41  74 SE5       30.18R
MONTICELLO *   CLEAR     54  45  71 SE7       30.16R
OELWEIN *      CLEAR     54  43  66 SE10      30.15S
WATERLOO       CLEAR     55  42  61 SE8       30.13R
$$

IAZ064-065-067-068-078-020800-
   EAST CENTRAL IOWA

CITY           SKY/WX    TMP DP  RH WIND       PRES   REMARKS
DAVENPORT      CLEAR     54  46  74 E9        30.16S
IOWA CITY      PTCLDY    55  52  89 CALM      30.15S
MT. PLEASANT * CLEAR     54  54 100 CALM      30.14R
MUSCATINE *    MOCLDY    57  54  88 CALM      30.15R
QUAD CITIES    CLEAR     52  47  83 E7        30.16R
$$

IAZ062-063-075>077-085>089-095>099-020800-
   SOUTHEAST IOWA

CITY           SKY/WX    TMP DP  RH WIND       PRES   REMARKS
BURLINGTON     CLEAR     56  54  93 CALM      30.14R
FAIRFIELD *    CLEAR     55  52  88 CALM      30.14S
FORT MADISON *   N/A     54  52  94 CALM      30.15R
KEOKUK *       CLEAR     52  52 100 E3        30.13S
OSKALOOSA *      N/A     54  54 100 CALM      30.13F
CENTERVILLE *  CLEAR     50  50 100 CALM      30.14S
OTTUMWA        CLEAR     53  52  96 CALM      30.13S FOG
WASHINGTON *   CLEAR     55  54  94 CALM      30.15R
$$

ABBREVIATIONS USED IN REMARKS
   TC - TEMPERATURES IN CELSIUS
  WCI - WIND CHILL INDEX
   HX - HEAT INDEX
  VSB - VISIBILITY
$$




USA.gov is the U.S. government's official web portal to all federal, state and local government web resources and services.